1522501200.33,29041,9.06,72222.8,-0.43,-12.93,-12.53,0,*65
1522501201.59,29042,9.06,72254.3,-0.47,-11.63,-10.93,0,*60
1522501202.85,29043,9.06,72220.3,-0.45,-11.29,-10.75,0,*65
1522501204.08,29044,9.06,72228.0,-0.45,-10.93,-10.67,0,*61
1522501205.29,29045,9.0,72226.5,-0.45,-11.01,-11.15,0,*6E
1522501206.54,29046,9.06,72224.8,-0.43,-11.41,-11.59,0,*67
1522501207.81,29047,9.06,72228.3,-0.43,-11.81,-12.07,0,*62
1522501209.06,29048,9.06,72214.3,-0.43,-12.11,-12.39,0,*6A
1522501210.3,29049,9.06,72212.0,-0.43,-12.21,-12.39,0,*68
1522501211.55,29050,9.06,72192.0,-0.43,-12.79,-13.11,0,*66
1522501212.77,29051,9.06,72198.8,-0.45,-13.15,-13.29,0,*61
1522501214.01,29052,9.06,72192.5,-0.47,-12.89,-13.01,0,*6E
1522501215.21,29053,9.06,72244.5,-0.45,-12.03,-12.03,0,*6C
1522501216.49,29054,9.06,72240.8,-0.43,-11.81,-11.93,0,*6E
1522501217.69,29055,9.06,72226.5,-0.45,-12.25,-12.43,0,*6A
1522501218.95,29056,9.06,72206.0,-0.45,-12.35,-12.61,0,*68
1522501220.18,29057,9.06,72206.0,-0.45,-12.25,-12.35,0,*69
1522501221.4,29058,9.06,72216.8,-0.45,-12.03,-12.15,0,*60
1522501222.61,29059,9.06,72222.5,-0.45,-12.29,-12.43,0,*6A
1522501223.89,29060,9.06,72206.0,-0.43,-12.11,-12.11,0,*6A
1522501225.17,29061,9.06,72210.0,-0.43,-11.93,-11.93,0,*6B
1522501226.44,29062,9.06,72200.0,-0.43,-11.73,-11.73,0,*68
1522501227.73,29063,9.06,72220.0,-0.39,-11.93,-11.89,0,*6F
1522501229.01,29064,9.06,72212.0,-0.43,-11.93,-11.97,0,*6A
1522501230.26,29065,9.06,72202.5,-0.39,-12.53,-12.39,0,*6E
1522501231.49,29066,9.06,72194.5,-0.39,-12.25,-12.25,0,*61
1522501232.75,29067,9.06,72198.0,-0.39,-12.21,-12.15,0,*67
1522501234.04,29068,9.06,72208.3,-0.39,-12.53,-12.35,0,*6F
1522501235.31,29069,9.06,72218.0,-0.39,-12.79,-12.65,0,*63
1522501236.59,29070,9.06,72222.8,-0.43,-12.53,-12.57,0,*6F
1522501237.86,29071,9.06,72220.3,-0.43,-11.97,-12.07,0,*60
1522501239.14,29072,9.06,72218.5,-0.39,-11.81,-11.93,0,*67
1522501240.39,29073,9.06,72222.8,-0.39,-11.81,-12.03,0,*6C
1522501241.64,29074,9.06,72216.0,-0.39,-11.77,-12.03,0,*62
1522501242.84,29075,9.06,72220.5,-0.37,-11.19,-11.41,0,*60
1522501244.1,29076,9.06,72214.8,-0.35,-11.01,-11.37,0,*69
1522501245.35,29077,9.06,72218.8,-0.35,-11.45,-11.73,0,*68
1522501246.58,29078,9.0,72214.8,-0.37,-11.11,-11.55,0,*60
1522501247.8,29079,9.06,72220.3,-0.35,-9.93,-10.49,0,*5C
1522501248.99,29080,9.06,72216.3,-0.37,-10.09,-9.79,0,*58
1522501250.24,29081,9.06,72232.0,-0.35,-9.71,-9.41,0,*67
1522501251.49,29082,9.06,72230.0,-0.35,-10.49,-10.79,0,*64
1522501252.76,29083,9.06,72212.5,-0.35,-11.51,-11.59,0,*6E
1522501254.04,29084,9.06,72228.0,-0.35,-11.77,-11.89,0,*60
1522501255.3,29085,9.06,72230.8,-0.35,-11.89,-12.21,0,*61
1522501256.53,29086,9.06,72230.0,-0.35,-12.03,-12.21,0,*63
1522501257.78,29087,9.06,72230.8,-0.37,-11.55,-11.81,0,*69
1522501259.06,29088,9.06,72234.3,-0.35,-11.63,-11.89,0,*69
1522501260.31,29089,9.06,72232.8,-0.33,-11.73,-11.97,0,*60
1522501261.54,29090,9.06,72240.0,-0.35,-12.29,-12.43,0,*68
1522501262.83,29091,9.06,72244.0,-0.31,-11.67,-11.93,0,*6A
1522501264.08,29092,9.06,72240.8,-0.33,-11.63,-11.77,0,*65
1522501265.34,29093,9.06,72232.3,-0.33,-11.63,-11.73,0,*60
1522501266.56,29094,9.06,72226.3,-0.33,-13.01,-13.07,0,*60
1522501267.8,29095,9.06,72234.0,-0.33,-12.11,-12.29,0,*6C
1522501269.03,29096,9.06,72218.0,-0.33,-11.63,-12.03,0,*61
1522501270.29,29097,9.06,72214.3,-0.35,-11.01,-11.51,0,*66
1522501271.48,29098,9.06,72236.5,-0.37,-10.23,-10.85,0,*62
1522501272.68,29099,9.06,72254.8,-0.37,-10.45,-11.41,0,*6A
1522501273.97,29100,9.06,72194.8,-0.35,-11.89,-12.71,0,*68
1522501275.2,29101,9.06,72206.0,-0.37,-11.63,-12.21,0,*6A
1522501276.45,29102,9.06,72208.0,-0.43,-11.23,-12.57,0,*6F
1522501277.67,29103,9.06,72218.5,-0.43,-10.57,-12.25,0,*69
1522501278.9,29104,9.06,72218.0,-0.43,-10.27,-12.25,0,*69
1522501280.15,29105,9.06,72220.3,-0.47,-8.71,-10.63,0,*56
1522501281.38,29106,9.06,72218.0,-0.47,-8.67,-10.35,0,*51
1522501282.59,29107,9.06,72226.3,-0.51,-8.21,-9.31,0,*69
1522501283.81,29108,9.06,72226.5,-0.49,-7.53,-7.99,0,*69
1522501285.02,29109,9.06,72224.8,-0.49,-7.31,-7.19,0,*64
1522501286.27,29110,9.06,72226.0,-0.49,-7.01,-6.97,0,*68
1522501287.49,29111,9.0,72218.0,-0.47,-6.55,-7.11,0,*68
1522501288.67,29112,9.06,72228.0,-0.45,-6.43,-7.53,0,*68
1522501289.91,29113,9.06,72230.5,-0.47,-6.69,-7.77,0,*65
1522501291.18,29114,9.06,72222.3,-0.47,-6.97,-7.61,0,*64
1522501292.42,29115,9.06,72216.5,-0.47,-6.93,-7.15,0,*62
1522501293.64,29116,9.06,72212.8,-0.47,-6.73,-6.47,0,*69
1522501294.88,29117,9.06,72244.0,-0.47,-6.31,-5.89,0,*6F
1522501296.07,29118,9.06,72258.3,-0.45,-6.55,-6.05,0,*67
1522501297.28,29119,9.06,72202.0,-0.47,-6.73,-6.01,0,*64
1522501298.49,29120,9.06,72108.8,-0.47,-6.69,-6.05,0,*61
1522501299.71,29121,9.06,72076.0,-0.47,-6.35,-6.43,0,*6B
1522501300.92,29122,9.06,72106.0,-0.49,-7.95,-8.33,0,*64
1522501302.13,29123,9.06,72108.3,-0.51,-8.75,-8.59,0,*61
1522501303.33,29124,9.06,72132.3,-0.49,-10.09,-10.01,0,*69
1522501304.56,29125,9.06,72090.8,-0.51,-11.19,-10.97,0,*6E
1522501305.81,29126,9.06,72124.5,-0.53,-11.59,-11.73,0,*60
1522501307.04,29127,9.0,72132.3,-0.55,-10.57,-10.97,0,*63
1522501308.27,29128,9.06,72144.5,-0.55,-10.31,-10.31,0,*60
1522501309.49,29129,9.06,72178.5,-0.57,-9.49,-9.79,0,*60
1522501310.68,29130,9.06,72170.5,-0.57,-9.71,-9.93,0,*67
1522501311.93,29131,9.06,72174.8,-0.57,-9.15,-9.61,0,*69
1522501313.17,29132,9.06,72188.8,-0.59,-8.07,-9.23,0,*60
1522501314.38,29133,9.06,72190.5,-0.57,-7.39,-8.21,0,*6E
1522501315.63,29134,9.06,72212.0,-0.57,-6.93,-6.97,0,*6B
1522501316.87,29135,9.06,72204.5,-0.57,-7.65,-7.77,0,*6D
1522501318.08,29136,9.06,72202.0,-0.57,-10.35,-10.19,0,*63
1522501319.34,29137,9.06,72214.0,-0.53,-10.71,-10.75,0,*6C
1522501320.59,29138,9.06,72204.3,-0.55,-9.57,-9.49,0,*6E
1522501321.81,29139,9.06,72190.0,-0.55,-9.05,-9.05,0,*60
1522501323.01,29140,9.06,72216.8,-0.55,-8.17,-8.55,0,*68
1522501324.25,29141,9.0,72210.0,-0.55,-7.83,-7.99,0,*64
1522501325.46,29142,9.06,72206.0,-0.55,-8.17,-8.75,0,*68
1522501326.68,29143,9.06,72198.3,-0.53,-9.05,-9.61,0,*69
1522501327.9,29144,9.06,72206.3,-0.53,-9.37,-9.79,0,*66
1522501329.1,29145,9.0,72214.0,-0.53,-8.93,-10.31,0,*5C
1522501330.32,29146,9.06,72214.8,-0.53,-8.81,-10.05,0,*5B
1522501331.52,29147,9.06,72222.3,-0.49,-6.35,-7.19,0,*6B
1522501332.72,29148,9.06,72222.5,-0.49,-6.09,-6.59,0,*6E
1522501333.91,29149,9.06,72214.3,-0.49,-6.47,-6.85,0,*64
1522501335.15,29150,9.06,72210.5,-0.47,-7.11,-7.95,0,*60
1522501336.35,29151,9.06,72208.0,-0.49,-8.89,-9.71,0,*65
1522501337.58,29152,9.06,72208.0,-0.47,-8.89,-9.71,0,*68
1522501338.8,29153,9.06,72210.5,-0.45,-8.85,-9.53,0,*67
1522501340.0,29154,9.06,72214.0,-0.45,-9.27,-9.93,0,*65
1522501341.22,29155,9.06,72204.8,-0.47,-10.49,-11.15,0,*61
1522501342.46,29156,9.06,72212.0,-0.47,-9.97,-10.75,0,*5E
1522501343.66,29157,9.06,72206.0,-0.45,-10.09,-10.93,0,*6A
1522501344.88,29158,9.0,72198.3,-0.45,-8.75,-9.53,0,*63
1522501346.09,29159,9.06,72206.8,-0.45,-8.07,-8.59,0,*6C
1522501347.27,29160,9.06,72224.5,-0.45,-7.53,-8.55,0,*64
1522501348.51,29161,9.06,72212.0,-0.47,-8.67,-9.41,0,*6B
1522501349.72,29162,9.06,72218.3,-0.45,-8.59,-9.15,0,*66
1522501350.92,29163,9.06,72226.8,-0.45,-8.21,-8.89,0,*6C
1522501352.13,29164,9.06,72228.0,-0.43,-8.17,-8.63,0,*6C
1522501353.34,29165,9.06,72220.3,-0.39,-9.05,-9.19,0,*6E
1522501354.57,29166,9.06,72218.8,-0.39,-10.01,-10.57,0,*63
1522501355.8,29167,9.06,72226.3,-0.39,-9.75,-10.35,0,*5D
1522501357.03,29168,9.0,72216.5,-0.39,-9.57,-9.71,0,*6A
1522501358.27,29169,9.06,72216.3,-0.39,-8.89,-8.81,0,*67
1522501359.49,29170,9.06,72224.0,-0.37,-7.77,-8.21,0,*65
1522501360.76,29171,9.06,72216.5,-0.35,-7.73,-7.95,0,*62
1522501361.98,29172,9.06,72210.3,-0.35,-9.79,-10.23,0,*5E
1522501363.24,29173,9.06,72208.5,-0.35,-9.53,-9.41,0,*6B
1522501364.46,29174,9.06,72218.5,-0.35,-8.89,-8.59,0,*62
1522501365.7,29175,9.06,72208.0,-0.33,-8.03,-7.77,0,*64
1522501366.9,29176,9.0,72224.3,-0.33,-7.23,-7.23,0,*6B
1522501368.17,29177,9.06,72218.3,-0.31,-7.35,-7.43,0,*69
1522501369.37,29178,9.06,72210.0,-0.33,-6.85,-7.23,0,*68
1522501370.57,29179,9.0,72206.8,-0.33,-7.23,-7.11,0,*65
1522501371.81,29180,9.06,72216.5,-0.31,-8.03,-7.87,0,*63
1522501373.03,29181,9.06,72218.8,-0.31,-8.71,-8.93,0,*6D
1522501374.28,29182,9.06,72224.0,-0.31,-8.71,-9.37,0,*61
1522501375.5,29183,9.06,72224.5,-0.31,-8.37,-8.85,0,*6A
1522501376.72,29184,9.06,72218.3,-0.29,-8.81,-9.01,0,*64
1522501377.92,29185,9.0,72208.8,-0.29,-8.89,-9.05,0,*69
1522501379.14,29186,9.06,72214.5,-0.29,-8.45,-8.51,0,*6A
1522501380.33,29187,9.06,72212.8,-0.29,-8.25,-8.33,0,*69
1522501381.57,29188,9.06,72228.5,-0.27,-7.43,-7.83,0,*63
1522501382.8,29189,9.06,72230.5,-0.27,-6.89,-7.95,0,*62
1522501384.07,29190,9.06,72224.5,-0.27,-7.05,-7.65,0,*60
1522501385.33,29191,9.0,72224.0,-0.27,-7.39,-8.11,0,*62
1522501386.55,29192,9.06,72232.8,-0.27,-7.69,-8.67,0,*65
1522501387.81,29193,9.0,72224.5,-0.23,-7.95,-8.03,0,*61
1522501389.07,29194,9.06,72230.5,-0.23,-7.39,-7.61,0,*6B
1522501390.29,29195,9.06,72230.8,-0.25,-7.83,-8.51,0,*61
1522501391.53,29196,9.06,72220.5,-0.23,-8.75,-9.11,0,*67
1522501392.74,29197,9.06,72224.3,-0.23,-8.33,-8.89,0,*64
1522501394.0,29198,9.06,72216.8,-0.23,-7.35,-7.61,0,*6B
1522501395.26,29199,9.06,72222.5,-0.23,-7.27,-6.97,0,*61
1522501396.45,29200,9.06,72218.0,-0.21,-6.69,-6.51,0,*61
1522501397.66,29201,9.06,72212.5,-0.21,-7.05,-7.19,0,*66
1522501398.88,29202,9.0,72212.3,-0.21,-6.97,-7.19,0,*6F
1522501400.11,29203,9.06,72208.3,-0.21,-6.63,-6.93,0,*66
1522501401.34,29204,9.06,72208.0,-0.21,-5.73,-5.77,0,*6A
1522501402.55,29205,9.06,72216.0,-0.21,-5.61,-5.47,0,*6B
1522501403.76,29206,9.0,72228.3,-0.21,-5.51,-4.93,0,*63
1522501404.98,29207,9.0,72220.3,-0.21,-5.23,-4.49,0,*60
1522501406.19,29208,9.06,72226.3,-0.21,-5.93,-5.35,0,*6E
1522501407.4,29209,9.06,72222.5,-0.21,-6.63,-6.05,0,*63
1522501408.61,29210,9.0,72216.8,-0.21,-7.87,-7.35,0,*62
1522501409.8,29211,9.0,72220.5,-0.21,-9.05,-8.41,0,*6B
1522501410.99,29212,9.06,72224.5,-0.25,-9.27,-8.59,0,*65
1522501412.18,29213,9.0,72230.8,-0.25,-9.23,-8.71,0,*6A
1522501413.38,29214,9.06,72232.0,-0.25,-8.71,-8.85,0,*60
1522501414.63,29215,9.0,72230.8,-0.25,-9.11,-9.41,0,*6F
1522501415.82,29216,9.06,72246.0,-0.25,-8.59,-8.71,0,*63
1522501417.03,29217,9.06,72248.0,-0.27,-8.63,-8.63,0,*6A
1522501418.23,29218,9.06,72250.0,-0.27,-8.33,-8.25,0,*62
1522501419.46,29219,9.06,72244.8,-0.27,-8.89,-9.01,0,*65
1522501420.7,29220,9.0,72250.8,-0.27,-9.01,-9.37,0,*6B
1522501421.94,29221,9.06,72260.3,-0.27,-8.51,-9.19,0,*62
1522501423.15,29222,9.06,72260.0,-0.27,-7.87,-8.63,0,*69
1522501424.37,29223,9.06,72268.5,-0.27,-7.19,-7.87,0,*6A
1522501425.64,29224,9.06,72266.5,-0.27,-7.43,-8.07,0,*65
1522501426.89,29225,9.06,72262.3,-0.27,-8.89,-9.61,0,*6C
1522501428.13,29226,9.06,72254.0,-0.27,-9.01,-9.57,0,*6B
1522501429.38,29227,9.06,72250.5,-0.27,-8.93,-9.45,0,*63
1522501430.61,29228,9.0,72216.3,-0.27,-8.51,-8.75,0,*60
1522501431.85,29229,9.06,72208.8,-0.27,-7.87,-7.57,0,*6A
1522501433.09,29230,9.06,72206.0,-0.27,-6.59,-6.23,0,*62
1522501434.32,29231,9.06,72208.8,-0.23,-5.55,-5.55,0,*6A
1522501435.53,29232,9.06,72204.3,-0.25,-4.85,-4.61,0,*65
1522501436.72,29233,9.0,72210.0,-0.25,-4.41,-4.29,0,*60
1522501437.94,29234,9.06,72212.0,-0.25,-3.75,-3.71,0,*6D
1522501439.13,29235,9.06,72208.8,-0.25,-3.87,-3.83,0,*6C
1522501440.33,29236,9.0,72200.8,-0.25,-3.95,-3.87,0,*68
1522501441.55,29237,9.0,72192.8,-0.23,-3.83,-3.87,0,*68
1522501442.75,29238,9.06,72206.0,-0.23,-3.23,-3.19,0,*6A
1522501443.96,29239,9.0,72222.0,-0.25,-3.43,-3.23,0,*62
1522501445.17,29240,9.06,72224.3,-0.23,-3.35,-3.23,0,*6B
1522501446.38,29241,9.06,72228.0,-0.23,-3.19,-3.11,0,*65
1522501447.65,29242,9.0,72230.8,-0.23,-2.55,-2.47,0,*6D
1522501448.92,29243,9.0,72216.5,-0.23,-2.47,-2.47,0,*6F
1522501450.13,29244,9.0,72206.0,-0.21,-2.43,-2.51,0,*69
1522501451.31,29245,9.0,72208.8,-0.21,-2.83,-2.91,0,*68
1522501452.53,29246,9.06,72216.0,-0.17,-3.07,-3.15,0,*6E
1522501453.71,29247,9.0,72230.8,-0.21,-3.03,-3.15,0,*6E
1522501454.89,29248,9.06,72240.5,-0.21,-3.15,-3.19,0,*6A
1522501456.08,29249,9.06,72204.3,-0.21,-3.15,-3.03,0,*60
1522501457.35,29250,9.0,72186.0,-0.17,-3.67,-3.43,0,*6C
1522501458.6,29251,9.06,72206.3,-0.17,-3.95,-3.71,0,*61
1522501459.8,29252,9.06,72214.5,-0.21,-4.69,-4.61,0,*65
1522501461.01,29253,9.06,72232.0,-0.21,-4.73,-4.25,0,*6F
1522501462.19,29254,9.0,72208.0,-0.21,-4.99,-4.45,0,*6A
1522501463.38,29255,9.0,72206.8,-0.25,-6.73,-6.05,0,*6F
1522501464.61,29256,9.0,72202.0,-0.23,-8.45,-7.95,0,*69
1522501465.81,29257,9.06,72194.5,-0.25,-8.85,-8.29,0,*6A
1522501467.0,29258,9.06,72178.3,-0.25,-8.75,-8.17,0,*67
1522501468.19,29259,9.06,72186.0,-0.25,-7.53,-7.49,0,*69
1522501469.43,29260,9.0,72194.0,-0.29,-5.73,-5.81,0,*69
1522501470.67,29261,9.06,72212.3,-0.27,-4.65,-4.69,0,*67
1522501471.89,29262,9.06,72226.3,-0.27,-4.17,-4.29,0,*65
1522501473.15,29263,9.06,72210.8,-0.27,-4.89,-4.89,0,*69
1522501474.37,29264,9.0,72220.8,-0.27,-5.47,-5.47,0,*6E
1522501475.59,29265,9.06,72218.3,-0.25,-5.03,-5.55,0,*6E
1522501476.81,29266,9.0,72198.8,-0.25,-4.41,-5.89,0,*6B
1522501478.01,29267,9.06,72220.0,-0.25,-4.25,-5.51,0,*6D
1522501479.21,29268,9.0,72224.3,-0.25,-4.41,-5.43,0,*63
1522501480.45,29269,9.06,72238.8,-0.27,-4.25,-5.07,0,*62
1522501481.67,29270,9.0,72220.8,-0.27,-4.05,-4.57,0,*6C
1522501482.89,29271,9.06,72218.3,-0.27,-3.79,-4.45,0,*62
1522501484.09,29272,9.0,72204.3,-0.25,-4.21,-4.61,0,*6F
1522501485.31,29273,9.06,72202.5,-0.25,-5.39,-5.31,0,*62
1522501486.56,29274,9.06,72202.3,-0.25,-5.31,-5.19,0,*67
1522501487.83,29275,9.06,72214.3,-0.27,-5.03,-4.77,0,*6C
1522501489.06,29276,9.0,72226.3,-0.27,-4.77,-4.33,0,*6D
1522501490.28,29277,9.06,72228.0,-0.25,-4.21,-3.59,0,*66
1522501491.5,29278,9.06,72228.0,-0.25,-4.89,-4.21,0,*63
1522501492.73,29279,9.06,72226.8,-0.23,-4.77,-4.09,0,*6F
1522501493.97,29280,9.06,72222.0,-0.25,-4.01,-3.63,0,*65
1522501495.23,29281,9.06,72210.8,-0.23,-3.63,-3.47,0,*67
1522501496.43,29282,9.06,72228.5,-0.25,-3.95,-3.87,0,*67
1522501497.65,29283,9.06,72232.8,-0.25,-3.63,-3.87,0,*6F
1522501498.86,29284,9.06,72196.8,-0.25,-3.31,-3.71,0,*66
1522501500.07,29285,9.06,72174.0,-0.27,-3.03,-3.27,0,*67
1522501501.27,29286,9.06,72182.0,-0.25,-2.87,-2.99,0,*6F
1522501502.48,29287,9.06,72174.3,-0.25,-3.31,-3.47,0,*60
1522501503.74,29288,9.06,72176.8,-0.27,-3.47,-3.63,0,*6A
1522501504.98,29289,9.06,72186.0,-0.29,-3.47,-3.55,0,*60
1522501506.24,29290,9.06,72200.0,-0.31,-3.43,-3.43,0,*62
1522501507.43,29291,9.06,72212.5,-0.33,-2.91,-3.03,0,*6B
1522501508.64,29292,9.06,72210.5,-0.31,-3.15,-3.19,0,*6C
1522501509.83,29293,9.06,72206.3,-0.33,-2.83,-3.11,0,*69
1522501511.05,29294,9.06,72214.3,-0.31,-3.19,-3.79,0,*60
1522501512.26,29295,9.0,72202.5,-0.31,-3.19,-4.05,0,*6D
1522501513.49,29296,9.06,72196.8,-0.33,-3.63,-4.21,0,*67
1522501514.7,29297,9.06,72210.8,-0.33,-3.07,-3.47,0,*63
1522501515.91,29298,9.0,72192.3,-0.33,-2.59,-3.07,0,*62
1522501517.12,29299,9.06,72188.8,-0.33,-3.23,-3.47,0,*6B
1522501518.31,29300,9.0,72196.8,-0.33,-2.87,-3.19,0,*6E
1522501519.52,29301,9.0,72202.5,-0.33,-2.59,-2.83,0,*6E
1522501520.74,29302,9.06,72212.3,-0.33,-2.31,-2.59,0,*64
1522501521.93,29303,9.06,72216.3,-0.33,-2.19,-2.39,0,*69
1522501523.17,29304,9.06,72216.0,-0.31,-2.43,-2.63,0,*6C
1522501524.42,29305,9.06,72216.3,-0.31,-2.51,-2.95,0,*67
1522501525.68,29306,9.06,72220.0,-0.31,-2.71,-3.55,0,*6B
1522501526.92,29307,9.06,72236.0,-0.31,-3.51,-4.45,0,*6F
1522501528.14,29308,9.06,72232.0,-0.27,-3.35,-4.25,0,*63
1522501529.33,29309,9.06,72208.0,-0.29,-5.43,-5.55,0,*6D
1522501530.55,29310,9.0,72184.0,-0.27,-6.35,-6.73,0,*6E
1522501531.77,29311,9.06,72192.8,-0.29,-5.85,-5.97,0,*60
1522501532.96,29312,9.0,72190.5,-0.29,-5.47,-5.97,0,*6D
1522501534.16,29313,9.06,72212.5,-0.29,-5.97,-6.47,0,*6F
1522501535.4,29314,9.06,72206.8,-0.27,-6.51,-7.31,0,*6F
1522501536.59,29315,9.0,72210.0,-0.29,-6.09,-6.01,0,*6F
1522501537.85,29316,9.06,72224.5,-0.27,-4.69,-4.81,0,*6C
1522501539.12,29317,9.06,72222.8,-0.27,-5.19,-5.11,0,*63
1522501540.39,29318,9.06,72210.5,-0.23,-5.69,-5.19,0,*67
1522501541.63,29319,9.0,72206.3,-0.23,-4.65,-4.73,0,*66
1522501542.86,29320,9.06,72210.3,-0.23,-4.61,-4.73,0,*68
1522501544.11,29321,9.06,72206.8,-0.23,-5.03,-4.65,0,*6B
1522501545.37,29322,9.06,72212.3,-0.23,-5.81,-5.31,0,*62
1522501546.62,29323,9.06,72216.5,-0.23,-5.39,-4.89,0,*62
1522501547.83,29324,9.06,72210.3,-0.23,-5.43,-5.51,0,*6C
1522501549.03,29325,9.06,72208.0,-0.21,-5.61,-6.05,0,*6D
1522501550.27,29326,9.06,72216.8,-0.21,-4.85,-5.27,0,*66
1522501551.48,29327,9.06,72226.8,-0.21,-5.11,-5.47,0,*6D
1522501552.71,29328,9.0,72214.3,-0.21,-4.93,-5.15,0,*6E
1522501553.92,29329,9.06,72214.3,-0.21,-5.15,-5.39,0,*6E
1522501555.14,29330,9.0,72214.8,-0.23,-6.35,-6.43,0,*6B
1522501556.36,29331,9.06,72208.3,-0.23,-6.55,-6.89,0,*6A
1522501557.56,29332,9.0,72204.5,-0.21,-6.05,-6.23,0,*6E
1522501558.82,29333,9.06,72212.0,-0.17,-5.47,-5.27,0,*68
1522501560.03,29334,9.06,72214.3,-0.21,-5.35,-5.11,0,*6A
1522501561.22,29335,9.06,72212.8,-0.21,-4.61,-4.49,0,*67
1522501562.44,29336,9.06,72210.0,-0.17,-4.33,-4.49,0,*66
1522501563.67,29337,9.06,72216.3,-0.17,-3.91,-3.91,0,*6A
1522501564.9,29338,9.0,72220.0,-0.21,-3.47,-3.47,0,*60
1522501566.12,29339,9.06,72222.8,-0.17,-2.91,-2.83,0,*67
1522501567.33,29340,9.06,72220.8,-0.21,-2.83,-2.71,0,*62
1522501568.57,29341,9.06,72224.3,-0.21,-2.71,-2.67,0,*69
1522501569.84,29342,9.0,72226.3,-0.17,-2.67,-2.67,0,*68
1522501571.07,29343,9.06,72226.0,-0.17,-3.07,-3.27,0,*6B
1522501572.31,29344,9.06,72224.5,-0.17,-3.19,-3.43,0,*61
1522501573.53,29345,9.06,72216.8,-0.17,-3.39,-3.15,0,*61
1522501574.76,29346,9.06,72224.5,-0.17,-3.31,-2.95,0,*63
1522501576.01,29347,9.06,72242.0,-0.17,-3.31,-2.67,0,*6F
1522501577.26,29348,9.06,72200.5,-0.17,-3.19,-2.67,0,*6A
1522501578.44,29349,9.06,72210.3,-0.15,-3.23,-2.91,0,*69
1522501579.64,29350,9.06,72212.3,-0.15,-3.35,-3.11,0,*6F
1522501580.86,29351,9.0,72212.3,-0.15,-2.87,-2.51,0,*63
1522501582.07,29352,9.06,72218.3,-0.13,-2.99,-2.79,0,*63
1522501583.31,29353,9.06,72222.8,-0.15,-3.55,-3.55,0,*6A
1522501584.49,29354,9.06,72218.5,-0.15,-4.29,-4.45,0,*67
1522501585.74,29355,9.0,72230.3,-0.15,-5.11,-5.23,0,*6D
1522501586.99,29356,9.0,72214.3,-0.15,-5.81,-5.31,0,*64
1522501588.26,29357,9.0,72210.0,-0.13,-6.23,-5.89,0,*6B
1522501589.5,29358,9.06,72224.8,-0.15,-5.69,-5.81,0,*67
1522501590.75,29359,9.06,72216.8,-0.13,-5.43,-5.07,0,*66
1522501592.0,29360,9.06,72218.0,-0.13,-5.85,-5.43,0,*66
1522501593.26,29361,9.06,72224.5,-0.13,-5.69,-5.73,0,*66
1522501594.48,29362,9.0,72224.8,-0.15,-5.69,-6.01,0,*65
1522501595.75,29363,9.06,72232.3,-0.13,-5.23,-5.19,0,*66
1522501596.97,29364,9.06,72236.0,-0.15,-5.31,-5.43,0,*6B
1522501598.22,29365,9.0,72236.3,-0.13,-5.55,-5.61,0,*6E
1522501599.47,29366,9.0,72238.3,-0.13,-5.89,-6.01,0,*69
1522501600.68,29367,9.0,72238.3,-0.13,-5.43,-5.97,0,*62
1522501601.9,29368,9.0,72234.5,-0.11,-5.81,-6.35,0,*6A
1522501603.13,29369,9.0,72232.0,-0.09,-5.77,-6.05,0,*58
1522501604.32,29370,9.06,72224.3,-0.11,-6.31,-6.85,0,*60
1522501605.53,29371,9.06,72222.0,-0.11,-7.53,-7.77,0,*68
1522501606.77,29372,9.0,72224.0,-0.11,-7.69,-7.69,0,*6D
1522501607.98,29373,9.0,72228.3,-0.11,-7.69,-7.49,0,*6E
1522501609.19,29374,9.06,72234.0,-0.11,-7.23,-7.01,0,*6B
1522501610.46,29375,9.0,72230.8,-0.09,-5.65,-5.93,0,*5A
1522501611.67,29376,9.06,72232.8,-0.11,-4.49,-4.93,0,*6E
1522501612.88,29377,9.0,72228.3,-0.09,-4.09,-4.29,0,*53
1522501614.07,29378,9.0,72218.5,-0.11,-3.87,-3.87,0,*67
1522501615.27,29379,9.06,72232.3,-0.11,-3.75,-3.75,0,*66
1522501616.46,29380,9.06,72238.0,-0.11,-4.09,-4.25,0,*6E
1522501617.72,29381,9.0,72238.0,-0.09,-4.93,-5.03,0,*50
1522501618.95,29382,9.0,72236.5,-0.11,-4.77,-5.19,0,*6B
1522501620.16,29383,9.0,72248.0,-0.11,-4.37,-4.73,0,*63
1522501621.38,29384,9.0,72246.3,-0.11,-3.35,-3.59,0,*6E
1522501622.56,29385,9.0,72252.5,-0.11,-2.87,-3.19,0,*63
1522501623.75,29386,9.06,72244.5,-0.11,-2.95,-3.39,0,*61
1522501624.94,29387,9.06,72248.3,-0.11,-3.39,-3.87,0,*62
1522501626.16,29388,9.06,72252.5,-0.11,-3.51,-4.13,0,*69
1522501627.37,29389,9.06,72248.0,-0.11,-4.73,-5.39,0,*66
1522501628.56,29390,9.0,72240.3,-0.11,-4.09,-4.25,0,*6F
1522501629.75,29391,9.0,72242.0,-0.11,-3.83,-3.83,0,*60
1522501630.98,29392,9.0,72244.8,-0.13,-3.27,-3.03,0,*67
1522501632.17,29393,9.06,72240.3,-0.15,-3.15,-2.99,0,*63
1522501633.36,29394,9.0,72228.8,-0.15,-3.23,-2.99,0,*61
1522501634.58,29395,9.06,72250.3,-0.17,-3.19,-3.19,0,*62
1522501635.83,29396,9.06,72254.3,-0.17,-2.83,-2.71,0,*6C
1522501637.1,29397,9.06,72244.8,-0.17,-2.51,-2.51,0,*60
1522501638.29,29398,9.06,72234.0,-0.21,-2.83,-2.83,0,*6A
1522501639.53,29399,9.0,72220.5,-0.21,-2.55,-2.51,0,*6F
1522501640.71,29400,9.06,72218.3,-0.21,-3.07,-3.07,0,*6C
1522501641.91,29401,9.06,72220.8,-0.25,-3.31,-3.19,0,*63
1522501643.14,29402,9.0,72194.3,-0.25,-3.47,-3.47,0,*6A
1522501644.32,29403,9.06,72190.3,-0.25,-3.23,-3.23,0,*6B
1522501645.52,29404,9.0,72178.8,-0.29,-3.35,-3.35,0,*60
1522501646.71,29405,9.06,72174.8,-0.29,-2.91,-2.87,0,*66
1522501647.9,29406,9.0,72188.3,-0.29,-3.15,-3.15,0,*62
1522501649.09,29407,9.0,72202.0,-0.29,-3.23,-3.11,0,*62
1522501650.28,29408,9.06,72202.8,-0.33,-3.11,-3.07,0,*60
1522501651.48,29409,9.06,72196.3,-0.33,-3.07,-2.99,0,*60
1522501652.7,29410,9.06,72210.5,-0.33,-2.83,-2.71,0,*63
1522501653.88,29411,9.0,72204.0,-0.33,-3.23,-3.11,0,*6E
1522501655.1,29412,9.06,72214.3,-0.35,-3.19,-3.11,0,*62
1522501656.34,29413,9.0,72222.8,-0.35,-3.47,-3.31,0,*6A
1522501657.53,29414,9.0,72204.3,-0.37,-3.39,-3.11,0,*64
1522501658.75,29415,9.06,72200.8,-0.37,-3.51,-3.27,0,*6E
1522501659.95,29416,9.06,72196.0,-0.37,-3.35,-3.03,0,*69
1522501661.17,29417,9.0,72180.5,-0.39,-3.35,-3.03,0,*66
1522501662.38,29418,9.0,72186.8,-0.39,-3.03,-2.79,0,*60
1522501663.65,29419,9.06,72204.8,-0.39,-2.71,-2.51,0,*6F
1522501664.86,29420,9.06,72204.5,-0.43,-2.43,-2.39,0,*67
1522501666.08,29421,9.06,72168.3,-0.39,-3.03,-2.99,0,*64
1522501667.32,29422,9.0,72166.8,-0.43,-3.39,-3.43,0,*65
1522501668.58,29423,9.06,72158.5,-0.43,-3.55,-3.51,0,*6D
1522501669.84,29424,9.06,72106.8,-0.43,-3.63,-3.71,0,*6D
1522501671.02,29425,9.0,72150.3,-0.45,-4.13,-4.09,0,*62
1522501672.24,29426,9.06,72166.0,-0.45,-3.87,-4.01,0,*63
1522501673.47,29427,9.0,72160.3,-0.47,-3.83,-4.13,0,*67
1522501674.73,29428,9.0,72108.5,-0.47,-4.01,-4.01,0,*66
1522501675.95,29429,9.0,72152.5,-0.47,-3.83,-3.87,0,*63
1522501677.16,29430,9.0,72106.3,-0.49,-3.91,-3.91,0,*61
1522501678.38,29431,9.0,72124.8,-0.51,-4.17,-4.25,0,*68
1522501679.59,29432,9.0,72142.5,-0.55,-4.29,-4.45,0,*64
1522501680.78,29433,9.0,72114.8,-0.53,-4.21,-4.41,0,*6F
1522501682.04,29434,9.0,72120.0,-0.55,-4.73,-4.93,0,*66
1522501683.32,29435,9.06,72126.8,-0.55,-5.23,-5.23,0,*69
1522501684.56,29436,9.06,72140.0,-0.57,-5.15,-5.27,0,*69
1522501685.79,29437,9.0,72136.5,-0.59,-6.13,-6.55,0,*65
1522501687.0,29438,9.06,72126.0,-0.61,-6.85,-7.31,0,*6D
1522501688.24,29439,9.06,72134.3,-0.63,-6.97,-6.85,0,*63
1522501689.45,29440,9.06,72144.8,-0.61,-6.63,-6.73,0,*6D
1522501690.72,29441,9.0,72154.3,-0.63,-5.61,-5.93,0,*62
1522501691.96,29442,9.06,72160.0,-0.63,-5.27,-6.05,0,*6F
1522501693.2,29443,9.0,72080.8,-0.67,-4.41,-4.81,0,*65
1522501694.39,29444,9.06,72138.5,-0.69,-4.37,-4.61,0,*63
1522501695.58,29445,9.06,72142.8,-0.69,-3.95,-4.09,0,*63
1522501696.84,29446,9.0,72164.8,-0.67,-3.51,-3.43,0,*6F
1522501698.06,29447,9.0,72078.0,-0.67,-3.87,-3.83,0,*69
1522501699.27,29448,9.0,72106.8,-0.71,-3.31,-3.23,0,*66
1522501700.46,29449,9.0,72136.0,-0.73,-3.15,-3.11,0,*62
1522501701.64,29450,9.06,72134.0,-0.73,-3.23,-3.15,0,*6B
1522501702.83,29451,9.06,72144.3,-0.73,-3.15,-3.11,0,*6B
1522501704.09,29452,9.06,72150.8,-0.71,-2.71,-2.67,0,*69
1522501705.31,29453,9.0,72166.3,-0.71,-2.91,-2.95,0,*6B
1522501706.51,29454,9.0,72186.3,-0.71,-2.91,-2.83,0,*6B
1522501707.78,29455,9.0,72192.3,-0.71,-2.55,-2.59,0,*65
1522501709.02,29456,9.06,72198.0,-0.71,-2.79,-2.71,0,*62
1522501710.2,29457,9.06,72180.0,-0.69,-2.91,-2.83,0,*61
1522501711.44,29458,9.0,72176.8,-0.69,-2.71,-2.59,0,*67
1522501712.66,29459,9.0,72174.0,-0.69,-2.95,-2.71,0,*66
1522501713.88,29460,9.0,72166.0,-0.69,-3.71,-3.95,0,*6C
1522501715.06,29461,9.06,72164.5,-0.69,-4.45,-4.53,0,*60